Weather Roundup
Issued by NWS Chicago, IL

Home | Current Version | Previous Version | Graphics & Text | Print | Product List | Glossary On
Versions: 1 2 3 4 5 6 7 8 9 10 11 12 13 14 15 16 17 18 19 20 21 22 23 24 25 26 27 28 29 30 31 32 33 34 35 36 37 38 39 40 41 42 43 44 45 46 47 48 49 50
000
NZUS59 KLOT 291708
HRRLOT

CHICAGO AREA WEATHER ROUNDUP
NATIONAL WEATHER SERVICE CHICAGO/ROMEOVILLE IL
1200 PM CDT WED MAR 29 2017

NOTE: "FAIR" INDICATES FEW OR NO CLOUDS BELOW 12,000 FEET WITH NO
SIGNIFICANT WEATHER AND/OR OBSTRUCTIONS TO VISIBILITY.

* THESE STATIONS ARE NOT UNDER NWS QUALITY CONTROL. THEY ALSO MAY NOT
  REPORT WEATHER SUCH AS PRECIPITATION OR FOG.

ILZ005-006-012>014-019>023-291800-
NORTHEAST ILLINOIS

CITY           SKY/WX    TMP DP  RH WIND       PRES   REMARKS
OHARE          CLOUDY    47  36  65 NE12      30.24S
MIDWAY         CLOUDY    47  37  68 NE14G21   30.24F
AURORA         CLOUDY    52  33  48 E13       30.23R
LANSING*       CLOUDY    49  41  71 NE9       30.23S
JOLIET*        CLOUDY    55  36  49 E9        30.22S
WAUKEGAN       CLOUDY    42  37  82 NE9       30.27R
DUPAGE AIRPORT MOSUNNY   50  37  61 NE12      30.23S
WHEELING       CLOUDY    43  37  79 NE9       30.26F
KANKAKEE*      CLOUDY    54  37  52 E14       30.21S
MORRIS*        CLOUDY    53  33  48 E16       30.20S
LEWIS AIRPORT* CLOUDY    53  39  59 E12       30.22S
NORTHERLY ISL    N/A     41  37  86 NE14        N/A
$$

WIZ051-052-058>065-066-070>072-291800-
SOUTHEAST WISCONSIN

CITY           SKY/WX    TMP DP  RH WIND       PRES   REMARKS
MILWAUKEE      CLOUDY    41  36  82 NE7       30.29F
KENOSHA*       PTSUNNY   43  35  73 E12       30.28S
RACINE*        CLOUDY    41  36  82 NE8       30.30F
WAUKESHA       MOSUNNY   43  34  70 E7        30.29S
WEST BEND      PTSUNNY   45  39  81 E8        30.28F
$$

INZ001>003-010>013-019-020-291800-
NORTHWEST INDIANA

CITY           SKY/WX    TMP DP  RH WIND       PRES   REMARKS
GARY*          PTSUNNY   46  37  71 NE10      30.24S
MICHIGAN CITY* NOT AVBL
RENSSELAER*    NOT AVBL
VALPARAISO     PTSUNNY   56  38  50 E16       30.23S
$$

LMZ740>746-291800-
SOUTHERN LAKE MICHIGAN

STATION/POSITION TIME  SKY/WX   TEMP WIND        PRES    VSBY
                                AIR  DIR/SP/G
                 (UTC)          (F)  (DEG/KT/KT) (MB)    (MI)
HARRISON CRIB    1640            39   40/ 14/ 16   N/A
BURNHAM HARBOR   1700            41   20/  9/ 13   N/A
CALUMET HARBOR   1636            40   20/ 13/ 16 1023.3F
BURNS HARBOR     1640            40   30/ 10/ 15 1024.4R
MICHIGAN CITY    1640            43   10/ 12/ 13   N/A
$$

ABBREVIATIONS USED IN REMARKS
   TC - TEMPERATURE IN CELSIUS
  WCI - WIND CHILL INDEX
   HX - HEAT INDEX
  VSB - VISIBILITY
$$




USA.gov is the U.S. government's official web portal to all federal, state and local government web resources and services.